Regional Weather Roundup
Issued by NWS San Angelo, TX

Home | Current Version | Previous Version | Text Only | Print | Product List | Glossary On
Versions: 1 2 3 4 5 6 7 8 9 10 11 12 13 14 15 16 17 18 19 20 21 22 23 24 25 26 27 28 29 30 31 32 33 34 35 36 37 38 39 40 41 42 43 44 45 46 47 48 49 50
000
ASUS44 KSJT 252110
RWRSJT
WEST CENTRAL TEXAS REGIONAL WEATHER ROUNDUP
NATIONAL WEATHER SERVICE SAN ANGELO TX
400 PM CDT SAT APR 25 2015

NOTE: "FAIR" INDICATES FEW OR NO CLOUDS BELOW 12,000 FEET WITH NO
SIGNIFICANT WEATHER AND/OR OBSTRUCTIONS TO VISIBILITY.

TXZ049-054-064>066-071>073-076>078-098-099-113-114-127-128-139-140-
154-155-168>170-252200
...LOCATIONS ACROSS WEST CENTRAL TEXAS...

CITY           SKY/WX    TMP DP  RH WIND       PRES   REMARKS
SAN ANGELO     SUNNY     87  29  12 W20G28    29.75F
ABILENE        SUNNY     84  39  20 SW20      29.73F
DYESS AFB      SUNNY     84  45  25 W15       29.72F
JUNCTION       SUNNY     89  29  11 W10G22    29.76F
SWEETWATER     SUNNY     81  37  20 W16       29.78F
BROWNWOOD      SUNNY     84  43  23 W12       29.74F
COLEMAN        CLEAR     84  46  26 W7G23     29.75F
SONORA         SUNNY     84  34  16 VRB7G18   29.83F
OZONA          FAIR      88  30  12 W13G18    29.81F
BRADY          SUNNY     88  36  15 W17       29.75F
$$

TEXAS PANHANDLE/OKLAHOMA PANHANDLE

CITY           SKY/WX    TMP DP  RH WIND       PRES   REMARKS
AMARILLO       SUNNY     79  28  15 S14G21    29.70F
BORGER         SUNNY     81  23  11 SW10G16   29.68F
CANADIAN       SUNNY     81  30  16 W8        29.64F
DALHART        SUNNY     78  24  13 S14       29.70F
DUMAS          CLEAR     80  27  14 SE12G18   29.69F
GUYMON         NOT AVBL
HEREFORD       CLEAR     80  28  15 MISG      29.72F
PAMPA          CLEAR     78  26  14 CALM      29.70F
PERRYTON         N/A     78  31  17 CALM      29.67F
$$

SOUTHERN PANHANDLE/SOUTH PLAINS/ROLLING PLAINS

CITY           SKY/WX    TMP DP  RH WIND       PRES   REMARKS
LUBBOCK        MOSUNNY   80  29  15 SW18G28   29.74F
SNYDER         SUNNY     80  38  21 W20G28    29.76F
CHILDRESS      SUNNY     85  36  17 W15G22    29.66F
SEMINOLE       CLEAR     80  27  14 W24G35    29.81F
$$

PERMIAN BASIN

CITY           SKY/WX    TMP DP  RH WIND       PRES   REMARKS
MIDLAND        SUNNY     82  29  14 SW18G32   29.80F
ODESSA         SUNNY     82  23  11 W22G33    29.81F
WINK           SUNNY     84  20   9 SW21G28   29.78F
$$

FAR WEST/SOUTHWEST MOUNTAINS/TRANS PECOS

CITY           SKY/WX    TMP DP  RH WIND       PRES   REMARKS
ALPINE         CLEAR     76  25  15 SW15G23   29.96F
DRYDEN           N/A     90  17   7 SW12G21   29.77F
EL PASO        MOSUNNY   79  16   9 SW24G31   29.86F
FORT STOCKTON  SUNNY     83  26  12 SW10G22   29.82F
GUADALUPE PASS SUNNY     72  19  13 W43G55    29.88F
MARFA          SUNNY     73  28  19 SW13G20   29.96F
PECOS          CLEAR     85  27  12 SW14G22   29.79F
$$

DALLAS/FORT WORTH METROPLEX

CITY           SKY/WX    TMP DP  RH WIND       PRES   REMARKS
DFW AIRPORT    SUNNY     86  44  23 SW17G26   29.64F
FTW MEACHAM    SUNNY     86  50  28 SW12      29.65F
DAL-EXECUTIVE  SUNNY     85  49  28 W14G21    29.65F
GRAND PRAIRIE  SUNNY     88  46  23 SW10G24   29.67F
ADDISON        SUNNY     88  36  15 SW12G25   29.64F
MESQUITE       CLEAR     88  45  22 SW15G21   29.65F
LANCASTER      CLEAR     85  49  28 SW12      29.67F
$$

NORTH CENTRAL TEXAS

CITY           SKY/WX    TMP DP  RH WIND       PRES   REMARKS
SHRMAN/DENISON CLEAR     83  57  40 W12G17    29.66F
GAINESVILLE    SUNNY     81  51  35 W9        29.67F
BRIDGEPORT     CLEAR     85  50  29 W14G21    29.68F
DENTON         SUNNY     85  51  31 W15       29.64F
WAXAHACHIE     CLEAR     85  53  33 CALM      29.68F
GRANBURY         N/A     87  51  28 SW15      29.69F
$$

WESTERN NORTH TEXAS

CITY           SKY/WX    TMP DP  RH WIND       PRES   REMARKS
WICHITA FALLS  SUNNY     83  47  28 SW10      29.64F
VERNON         CLEAR     87  25  10 SW13G21   29.64F
BRECKENRIDGE   CLEAR     87  35  16 W20G28    29.69F HAZE
COMANCHE       SUNNY     83  49  30 W10G17    29.74F
$$

CENTRAL AND SOUTH CENTRAL TEXAS

CITY           SKY/WX    TMP DP  RH WIND       PRES   REMARKS
AUSTIN/BERGSTM MOSUNNY   91  51  25 SW3       29.70F
WACO           SUNNY     88  47  24 W14       29.68F
HILLSBORO      CLEAR     86  49  27 SW13      29.69F
TEMPLE         SUNNY     90  45  20 W14G22    29.70F
KILLEEN-GRAY   SUNNY     86  44  23 W13       29.71F
FORT HOOD      SUNNY     88  42  20 W15G22    29.70F
GEORGETOWN     SUNNY     91  45  19 SW15      29.71F
LAGO VISTA     FAIR      90  41  18 W6G16     29.75F
SAN MARCOS     SUNNY     91  54  27 CALM      29.73F
NEW BRAUNFELS  SUNNY     89  56  32 S8        29.71F
RANDOLPH AFB   SUNNY     89  53  29 CALM      29.73F
SAN ANTONIO    MOSUNNY   90  53  28 S9        29.73F
STINSON        SUNNY     89  59  36 S9        29.72F
PLEASANTON     NOT AVBL
LA GRANGE      SUNNY     89  67  49 SW5       29.70F
GIDDINGS       CLEAR     89  53  29 SW6       29.75F
$$

EAST TEXAS

CITY           SKY/WX    TMP DP  RH WIND       PRES   REMARKS
PARIS          SUNNY     82  54  36 MISG      29.65F
CLARKSVILLE    NOT AVBL
TYLER          SUNNY     86  52  30 W12       29.67F
LONGVIEW       SUNNY     87  56  34 W10       29.65F
PALESTINE      CLEAR     89  51  27 W14G20    29.70S
NACOGDOCHES    SUNNY     88  63  42 SW8       29.68F
$$

TEXAS HILL COUNTRY AND EDWARDS PLATEAU

CITY           SKY/WX    TMP DP  RH WIND       PRES   REMARKS
LLANO          CLEAR     88  45  22 W3        29.76F
HORSESHOE BAY  FAIR      91  41  17 W9        29.74F
KERRVILLE      SUNNY     89  44  20 W7        29.78F
FREDERICKSBRG  SUNNY     86  40  19 SW9       29.76F
ROCKSPRINGS    CLEAR     84  36  17 W10G18    29.83F
HONDO          SUNNY     89  55  31 SW3         N/A
UVALDE         CLEAR     87  54  31 S6        29.76F
DEL RIO        SUNNY     89  48  24 SE6       29.73F
$$

SOUTHEAST TEXAS

CITY           SKY/WX    TMP DP  RH WIND       PRES   REMARKS
COLLEGE STN    SUNNY     89  56  32 W7        29.70F
CALDWELL       CLEAR     88  55  33 SW5       29.73F
CROCKETT       NOT AVBL
BRENHAM        SUNNY     88  67  48 S7        29.72F
HUNTSVILLE     SUNNY     87  66  49 VRB6      29.71F
CONROE         SUNNY     85  63  47 S7        29.72F
HOUSTON BUSH   MOSUNNY   86  69  56 S7        29.71F
HOUSTON HOBBY  MOSUNNY   82  70  66 S9        29.73F
PERLAND        SUNNY     82  67  60 S8        29.75F
WHARTON        PTCLDY    83  70  65 S9        29.75F
$$

THE UPPER TEXAS COAST

CITY           SKY/WX    TMP DP  RH WIND       PRES   REMARKS
ORANGE         PTCLDY    79  65  62 S10       29.76F
PORT ARTHUR    MOSUNNY   82  68  62 SW10      29.74F
GALVESTON      SUNNY     76  69  79 SE18      29.75F
ANGLETON       SUNNY     78  70  76 S10       29.74F
BAY CITY       CLEAR     80  73  77 SE7       29.75F
$$

TEXAS COASTAL BEND, RIO GRANDE PLAINS DEEP SOUTH TEXAS

CITY           SKY/WX    TMP DP  RH WIND       PRES   REMARKS
VICTORIA       SUNNY     84  70  62 S7        29.74F
BEEVILLE       FAIR      88  71  57 SE6       29.73F
ROCKPORT       SUNNY     81  70  69 E13       29.74F
PORT ARANSAS   CLEAR     77  70  79 E13       29.75S
PORT LAVACA    CLEAR     81  70  68 E10       29.75F
CORPUS CHRISTI PTSUNNY   80  73  79 E10       29.74F
KINGSVILLE NAS PTSUNNY   85  78  80 E7        29.73F
COTULLA        SUNNY     91  58  32 VRB3      29.74F
LAREDO         SUNNY     92  59  33 N8        29.74F
BROWNSVILLE    MOSUNNY   92  79  65 NE14      29.69F
PORT ISABEL    MOSUNNY   87  77  72 NE8       29.70F HAZE
HEBBRONVILLE     N/A     88  67  50 N3        29.75F
MCALLEN        PTSUNNY   93  76  57 NE9       29.71F
WESLACO        PTSUNNY   88  76  67 N9        29.70F
FALFURRIAS     MOCLDY    86  75  68 NE5       29.72F
EDINBURG       PTCLDY    90  75  61 NE6       29.71F
$$


USA.gov is the U.S. government's official web portal to all federal, state and local government web resources and services.